Regional Weather Roundup
Issued by NWS Upton, NY

Home | Current Version | Previous Version | Text Only | Print | Product List | Glossary On
Versions: 1 2 3 4 5 6 7 8 9 10 11 12 13 14 15 16 17 18 19 20 21 22 23 24 25 26 27 28 29 30 31 32 33 34 35 36 37 38 39 40 41 42 43 44 45 46 47 48 49 50
000
ASUS41 KOKX 280105
RWROKX
REGIONAL WEATHER ROUNDUP
NATIONAL WEATHER SERVICE NEW YORK NY
900 PM EDT WED AUG 27 2014

NOTE: "FAIR" INDICATES FEW OR NO CLOUDS BELOW 12,000 FEET WITH NO
SIGNIFICANT WEATHER AND/OR OBSTRUCTIONS TO VISIBILITY.

NYZ071-072-176-178-NJZ106-104-280200-
NEW YORK CITY METRO AREA


CITY           SKY/WX    TMP DP  RH WIND       PRES   REMARKS
CENTRAL PARK   CLOUDY    83  65  54 VRB3      29.92R
LAGUARDIA APRT PTCLDY    80  65  59 S12       29.88R
KENNEDY INTL   PTCLDY    76  67  73 S7        29.91R
NEWARK/LIBERTY MOCLDY    85  65  51 SW7       29.88R
BRNX BOT. GARD   N/A     77  64  65 S2        29.90R
TETERBORO      MOCLDY    86  66  51 W5        29.87R
$$

NYZ177-179-078>081-280200-
LONG ISLAND NEW YORK

CITY           SKY/WX    TMP DP  RH WIND       PRES   REMARKS
FARMINGDALE    CLEAR     75  67  76 SW7       29.91R
ISLIP          PTCLDY    74  66  76 S5        29.89R
SHIRLEY        PTCLDY    74  67  78 S8        29.91S
WESTHAMPTON    CLEAR     72  65  78 SW6       29.92S
MONTAUK POINT    N/A     73  64  73 VRB3      29.92S
$$

NYZ052-065-067-280200-
HUDSON VALLEY

CITY           SKY/WX    TMP DP  RH WIND       PRES   REMARKS
WHITE PLAINS   MOCLDY    78  64  61 E5        29.92R
NEWBURGH       PTCLDY    75  72  88 VRB5      29.94R
MONTGOMERY     MOCLDY    77  69  76 NE5       29.92R
POUGHKEEPSIE   PTCLDY    73  70  90 CALM      29.90R
ALBANY         MOCLDY    73  59  61 W7        29.94R
$$

NJZ001-105-106-008-010-013-015-019>022-104-280200-
NEW JERSEY

CITY           SKY/WX    TMP DP  RH WIND       PRES   REMARKS
NEWARK/LIBERTY MOCLDY    85  65  51 SW7       29.88R
TETERBORO      MOCLDY    86  66  51 W5        29.87R
CALDWELL       PTCLDY    80  67  64 CALM      29.89R
MORRISTOWN     MOCLDY    75  70  83 CALM      29.89R
SOMERVILLE     PTCLDY    76  69  79 CALM      29.87R
LINDEN         FAIR      87  67  51 CALM      29.90R HX  90
SUSSEX         CLOUDY    74  71  91 CALM      29.93R
ANDOVER          N/A     77  69  76 N3        29.93R
TRENTON        PTCLDY    82  66  58 W5        29.89R
MILLVILLE      CLEAR     73  64  73 CALM      29.91R
ATLANTIC CITY  CLEAR     74  65  73 SW3       29.91R
WRIGHTSTOWN    CLEAR     76  68  76 SE3       29.88R
TOMS RIVER     CLEAR     73  66  78 CALM      29.91R
BELMAR         CLEAR     75  63  64 SW5       29.91R
$$

PAZ047>061-062-071-280200-
EASTERN PENNSYLVANIA

CITY           SKY/WX    TMP DP  RH WIND       PRES   REMARKS
PHILADELPHIA   PTCLDY    82  66  58 SW10      29.90R
ALLENTOWN      CLOUDY    81  69  67 CALM      29.90R
SCRANTON       CLOUDY    77  69  76 N8        29.96R
$$

CTZ002-004>006-009-010-012-RIZ004-006-007-MAZ004-011-015-280200-
SOUTHERN NEW ENGLAND
 IN CT

CITY           SKY/WX    TMP DP  RH WIND       PRES   REMARKS
BRADLEY INTL   CLOUDY    76  71  85 CALM      29.89R
HARTFORD       CLOUDY    77  70  79 CALM      29.89R
DANBURY        LGT RAIN  72  69  90 CALM      29.93F FOG
WTRBRY/OXFORD  PTCLDY    70  64  83 N6        29.95S
BRIDGEPORT     PTCLDY    79  66  64 S8        29.90R
MERIDEN        LGT RAIN  75  66  73 NW6       29.91R
NEW HAVEN      PTCLDY    79  66  64 S8        29.90F
CHESTER        FAIR      73  66  78 SW6       29.92S
GROTON         CLEAR     71  65  81 S5        29.90S
WILLIMANTIC    MOCLDY    77  65  66 CALM      29.91F

 IN RI

CITY           SKY/WX    TMP DP  RH WIND       PRES   REMARKS
PROVIDENCE     MOCLDY    74  64  71 SW6       29.92R
BLOCK ISLAND   CLEAR     70  63  78 SW12      29.92S
WESTERLY       CLEAR     72  64  76 SW5       29.91S

 IN MA

CITY           SKY/WX    TMP DP  RH WIND       PRES   REMARKS
BOSTON         LGT RAIN  79  68  69 W12       29.87R
WORCESTER      HVY RAIN  69  68  96 W7        29.94S FOG
WESTFIELD      CLOUDY    75  73  93 S3        29.91R
PROVINCETOWN   PTCLDY    70  61  73 SW12      29.89R
NANTUCKET      PTCLDY    68  67  96 SW7       29.92S FOG
$$

ANZ330-335-338-340-345-350-353-355-280200-
COASTAL MARINE OBSERVATIONS


STATION/POSITION TIME  SKY/WX   TEMP    WIND        PRES    VSBY  WAVE
                                AIR SEA DIR/SP/G                  HT/PER
                 (UTC)          (F)     (DEG/KT/KT) (MB)    (MI)  (FT/S)
NY HARB ENTRANCE NOT AVBL
4S FIRE IS       NOT AVBL
23SW MTP         0100                                 N/A           6/16
HUDSON CANYON    0100            73 75  180/  4/  6 1012.6          5/15
EXECUTION ROCKS  0100            78 75  200/ 12/ 16   N/A
WESTERN LI SOUND 0100            78     230/  4/ 10   N/A           1
CENTRAL LI SOUND 0000            75 74  200/ 10/ 12   N/A           1/ 2
EASTERN LI SOUND 0000            72 69  200/  6/  8   N/A
ROBBINS REEF     0100            78     160/ 12/ 12   N/A
$$


>>>>>>>>>>>>>>>>>>>>>>>>>>>> KEY <<<<<<<<<<<<<<<<<<<<<<<<<<<
>                                                          <
>     SKY/WX - SKY CONDITION/PRESENT WEATHER               <
>     TMP    - TEMPERATURE IN FAHRENHEIT                   <
>     DP     - DEWPOINT IN FAHRENHEIT                      <
>     RH     - RELATIVE HUMIDITY IN PERCENT                <
>     WIND   - DIRECTION AND SPEED IN MPH                  <
>     PRES   - MEAN SEA LEVEL PRESSURE IN INCHES OF HG     <
>     WCI    - WIND CHILL INDEX                            <
>     VSB    - VISIBILITY IN MILES                         <
>     HX     - HEAT INDEX                                  <
>     TC     - TEMPERATURE IN CELSIUS                      <
>     VRB    - VARIABLE WIND DIRECTION                     <
>                                                          <
>>>>>>>>>>>>>>>>>>>>>>>>>>>> KEY <<<<<<<<<<<<<<<<<<<<<<<<<<<




USA.gov is the U.S. government's official web portal to all federal, state and local government web resources and services.